Regional Weather Roundup
Issued by NWS Jackson, KY

Home | Current Version | Previous Version | Graphics & Text | Print | Product List | Glossary On
Versions: 1 2 3 4 5 6 7 8 9 10 11 12 13 14 15 16 17 18 19 20 21 22 23 24 25 26 27
000
ASUS43 KJKL 231010
RWRJKL

EAST KENTUCKY HOURLY WEATHER ROUNDUP
NATIONAL WEATHER SERVICE JACKSON KY
600 AM EDT MON OCT 23 2017

NOTE: "FAIR" INDICATES FEW OR NO CLOUDS BELOW 12,000 FEET WITH
NO SIGNIFICANT WEATHER AND/OR OBSTRUCTIONS TO VISIBILITY.

* THESE REPORTS ARE NOT UNDER NWS QUALITY CONTROL AND MAY NOT
  REPORT WEATHER SUCH AS PRECIPITATION AND FOG.

KYZ079-080-083-085-087-088-110-112-115-119-120-231100
...EASTERN KENTUCKY...

CITY           SKY/WX    TMP DP  RH WIND       PRES   REMARKS
JACKSON        CLOUDY    65  54  67 VRB5      29.96F
LONDON         LGT RAIN  66  57  72 SE5       29.92F
SOMERSET*      RAIN      63  55  77 CALM      29.92S
MONTICELLO*    LGT RAIN  63  60  90 VRB5      29.90F
WILLIAMSBURG*  CLOUDY    63  59  88 CALM      29.91F
MIDDLESBORO*   CLOUDY    69  59  72 S5        29.95F
HARLAN APT*    CLOUDY    68  55  64 NE6       29.97F
PIKE CO APT*     N/A     68  57  69 E3        30.00F
BIG SANDY APT* CLOUDY    66  57  71 SE6       30.00F
MOREHEAD APT*  CLOUDY    64  54  68 VRB6      29.96F
$$

KYZ035-036-041-042-044-050-067-078-099-231100
...CENTRAL KENTUCKY...

CITY           SKY/WX    TMP DP  RH WIND       PRES   REMARKS
MT STERLING*   CLOUDY    64  54  68 SE5       29.95S
FLEMING/MASON* CLOUDY    65  55  70 SE7       29.95F
DANVILLE*      LGT RAIN  63  55  77 CALM      29.91F
LEXINGTON      MOCLDY    67  56  67 SE8       29.91F
FRANKFORT      CLOUDY    66  55  67 E6        29.88F
LOUISVILLE     RAIN      64  61  90 E8        29.84F
LEBANON*       LGT RAIN  64  59  82 E5        29.87F
GLASGOW*       RAIN      64  64 100 E5        29.82F
BOWLING GREEN  HVY RAIN  64  63  96 NW5       29.84S FOG
$$

KYZ091>093-OHZ055-061-077-WVZ005-015-034-035-042-231100
...SOUTHERN OHIO/WEST VIRGINIA...

CITY           SKY/WX    TMP DP  RH WIND       PRES   REMARKS
COVINGTON      CLOUDY    65  55  70 SE9       29.89F
COLUMBUS       CLOUDY    64  52  64 SE9       29.97F
DAYTON         CLOUDY    62  54  74 SE9       29.93F
WILMINGTON     CLOUDY    63  55  75 SE8       29.93F
HUNTINGTON     CLOUDY    62  53  72 E7        29.97F
CHARLESTON     CLOUDY    68  54  60 SE5       30.02F
PINEVILLE*     CLOUDY    67  57  70 MISG      30.12F
BECKLEY        CLOUDY    62  55  77 SE15G28   30.11F
BLUEFIELD      CLOUDY    59  54  83 SE9G20    30.15F
LOGAN CO APT*    N/A     68  57  68 VRB5G17   30.02F
$$

VAZ002-007-008-TNZ017-027-036-066-071-231100
...SOUTHWEST VIRGINIA/EAST TENNESSEE...

CITY           SKY/WX    TMP DP  RH WIND       PRES   REMARKS
WISE*          CLOUDY    64  57  77 S9        30.05F
JONESVILLE*      N/A     66  57  72 NE3       30.01F
ABINGDON*      CLOUDY    68  57  68 SE10      30.07F
BRISTOL        CLOUDY    69  59  70 E8        30.02F
MORRISTOWN*    PTSUNNY   66  61  82 E6        29.95F
SEVIERVILLE*   MOSUNNY   66  59  77 CALM      29.92F
KNOXVILLE      CLOUDY    66  62  87 N5        29.90F
LAFOLLETTE*    CLOUDY    59  59 100 CALM      29.96F
OAK RIDGE      LGT RAIN  61  61 100 CALM      29.93F
CROSSVILLE     CLOUDY    65  61  87 SE12G21   29.90F
NASHVILLE      RAIN      62  60  93 NW6       29.85R FOG
$$

...KEY TO REMARKS...
VSB - VISIBILITY IN MILES
WCI - WIND CHILL INDEX
HX  - HEAT INDEX

$$




USA.gov is the U.S. government's official web portal to all federal, state and local government web resources and services.